Regional Weather Roundup
Issued by NWS

Home | Current Version | Previous Version | Text Only | Print | Product List | Glossary On
Versions: 1 2 3 4 5 6 7 8 9 10 11 12 13 14 15 16 17 18 19 20 21 22 23 24 25 26 27 28 29 30 31 32 33 34 35 36 37 38 39 40 41 42 43 44 45 46 47 48 49 50
000
ASUS43 KBIS 180602
RWRND

NORTH DAKOTA REGIONAL WEATHER ROUNDUP
NATIONAL WEATHER SERVICE BISMARCK ND
100 AM CDT FRI AUG 18 2017

NOTE: "FAIR" INDICATES FEW OR NO CLOUDS BELOW 12,000 FEET WITH NO
SIGNIFICANT WEATHER AND/OR OBSTRUCTIONS TO VISIBILITY.


NDZ001>003-009>011-017-180700-
NORTHWEST NORTH DAKOTA

CITY           SKY/WX    TMP DP  RH WIND       PRES   REMARKS
WILLISTON      CLEAR     59  54  83 NE3       29.92S
6HR MIN TEMP:  59; 6HR MAX TEMP:  80; 6HR PCP: TRACE;

MINOT          TSTM      65  58  78 N7        29.89R
MINOT AFB      CLOUDY    63  58  82 SW5       29.87R THUNDER
$$

NDZ018>021-031>035-040>046-180700-
SOUTHWEST NORTH DAKOTA

CITY           SKY/WX    TMP DP  RH WIND       PRES   REMARKS
BISMARCK       CLEAR     63  59  87 CALM      29.84S
6HR MIN TEMP:  61; 6HR MAX TEMP:  77;

DICKINSON      CLEAR     58  49  72 NW7       29.92R
GARRISON         N/A     61  54  77 N30G44    29.84R
6HR MIN TEMP:  61; 6HR MAX TEMP:  78;

HETTINGER ARPT CLOUDY    57  48  72 NW3       29.94R
$$

NDZ004>008-012>016-024-026-027-054-180700-
NORTHEAST NORTH DAKOTA

CITY           SKY/WX    TMP DP  RH WIND       PRES   REMARKS
GRAND FORKS    CLEAR     62  60  93 CALM      29.82F
DEVILS LAKE    PTCLDY    69  59  70 S5        29.87S
$$

NDZ022-023-025-028>030-036>039-047>053-180700-
SOUTHEAST NORTH DAKOTA

CITY           SKY/WX    TMP DP  RH WIND       PRES   REMARKS
FARGO          CLEAR     62  59  90 CALM      29.84F
6HR MIN TEMP:  62; 6HR MAX TEMP:  77;

JAMESTOWN      PTCLDY    58  56  93 NW3       29.87R
$$




USA.gov is the U.S. government's official web portal to all federal, state and local government web resources and services.